SCP
0 0 0 0 0 0 0 0 0 0 0 0 0 0 0 0 0 0 0 0 0 0 0 0 0 0 0 0 0 0 0 0
0 0 0 0 0 0 0 0 0 0 0 0 0 0 0 0 0 0 0 0 0 0 0 0 0 0 0 0 0 0 0 0
0 0 0 0 0 0 0 0 0 0 0 0 0 0 0 0 0 0 0 0 0 0 0 0 0 0 0 0 0 0 0 0
0 0 0 0 0 0 0 0 0 0 0 0 0 0 0 0 0 0 0 0 0 0 0 0 0 0 0 0 0 0 0 0
0 0 0 0 0 0 0 0 0 0 0 0 0 0 0 0 0 0 0 0 0 0 0 0 0 0 0 0 0 0 0 0
0 0 0 0 0 0 0 0 0 0 0 0 0 0 0 0 0 0 0 0 0 0 0 0 0 0 0 0 0 0 0 0
0 0 0 0 0 0 0 0 0 0 0 0 0 0 0 0 0 0 0 0 0 0 0 0 0 0 0 0 0 0 0 0
0 0 0 0 0 0 0 0 0 0 0 0 0 0 0 0 0 0 0 0 0 0 0 0 0 0 0 0 0 0 0 0
0 0 0 0 0 0 0 0 0 0 0 0 0 0 0 0 0 0 0 0 0 0 0 0 0 0 0 0 0 0 0 0
0 0 0 0 0 0 0 0 0 0 0 0 0 0 0 0 0 0 0 0 0 0 0 0 0 0 0 0 0 0 0 0
0 0 0 0 0 0 0 0 0 0 0 0 0 0 0 0 0 0 0 0 0 0 0 0 0 0 0 0 0 0 0 0
0 0 0 0 0 0 0 0 0 0 0 0 0 0 0 0 0 0 0 0 0 0 0 0 0 0 0 0 0 0 0 0
0 0 0 0 0 0 0 0 0 0 0 0 0 0 0 0 0 0 0 0 0 0 0 0 0 0 0 0 0 0 0 0
0 0 0 0 0 0 0 0 0 0 0 0 0 0 0 0 0 0 0 0 0 0 0 0 0 0 0 0 0 0 0 0
0 0 0 0 0 0 0 0 0 0 0 0 0 0 0 0 0 0 0 0 0 0 0 0 0 0 0 0 0 0 0 0
0 0 0 0 0 0 0 0 0 0 0 0 0 0 0 0 0 0 0 0 0 0 0 0 0 0 0 0 0 0 0 0
0 0 0 0 0 0 0 0 0 0 0 0 0 0 0 0 0 0 0 0 0 0 0 0 0 0 0 0 0 0 0 0
0 0 0 0 0 0 0 0 0 0 0 0 0 0 0 0 0 0 0 0 0 0 0 0 0 0 0 0 0 0 0 0
0 0 0 0 0 0 0 0 0 0 0 0 0 0 0 0 0 0 0 0 0 0 0 0 0 0 0 0 0 0 0 0
0 0 0 0 0 0 0 0 0 0 0 0 0 0 0 0 0 0 0 0 0 0 0 0 0 0 0 0 0 0 0 0
Wind_Speed_500mb
39 41 41 43 45 44 43 42 40 37 34 32 28 24 20 17 13 10 9 10 12 16 19 24 29 34 38 42 45 49 49 52
45 46 45 44 45 46 42 40 38 35 32 29 27 23 19 15 13 10 12 13 17 22 27 31 36 41 45 48 52 55 58 59
46 46 44 42 41 41 40 37 35 32 29 25 22 19 14 11 9 9 13 19 25 30 34 38 42 46 52 56 58 64 68 71
47 45 44 42 41 39 37 33 32 29 25 23 18 12 7 7 11 15 21 26 33 38 43 46 50 55 58 64 68 70 73 75
47 47 46 45 43 41 39 34 31 26 21 15 11 7 7 12 18 25 32 37 40 42 45 48 50 55 61 66 70 75 78 80
57 54 51 49 46 42 38 34 28 22 16 10 7 8 13 19 26 32 35 38 41 44 47 51 55 60 69 75 80 85 89 89
61 58 55 52 49 44 38 32 25 18 11 6 4 9 17 25 30 34 38 41 45 49 56 59 62 67 72 79 88 92 95 99
69 62 58 53 49 44 38 31 24 15 7 1 9 19 28 33 36 40 44 48 52 56 63 68 70 75 79 84 91 96 98 99
73 67 61 57 50 44 37 30 21 11 2 9 19 28 32 35 38 43 48 53 59 64 68 75 75 78 81 86 92 97 98 97
77 71 64 56 50 43 35 25 15 6 7 17 26 29 31 35 40 45 53 59 65 70 73 78 79 77 79 83 88 94 98 95
79 73 65 58 50 41 32 22 13 7 14 23 28 30 32 37 44 51 59 67 73 78 80 81 84 81 82 85 89 92 93 91
80 74 66 58 48 38 27 17 9 12 18 23 25 27 34 41 50 59 66 73 78 81 83 85 84 85 84 87 88 83 86 84
81 74 64 52 42 32 22 13 12 16 18 19 22 30 39 48 56 63 70 76 82 88 93 93 92 89 87 88 85 72 68 76
78 70 59 48 35 26 20 15 15 17 16 18 25 34 44 54 60 65 71 79 84 87 92 96 95 93 91 88 83 61 61 67
73 64 52 39 33 26 20 17 16 16 17 23 31 39 48 53 60 67 72 76 79 84 89 94 99 98 94 83 74 68 65 67
61 51 44 37 31 24 20 18 17 17 23 30 39 46 51 55 60 65 69 74 80 83 86 90 100 96 84 73 74 66 60 61
58 49 40 31 26 23 21 20 20 22 29 37 43 49 54 59 62 63 71 76 78 78 78 86 83 88 81 73 65 61 55 53
47 39 33 28 26 26 25 23 24 29 35 40 45 51 55 60 67 78 78 77 82 83 84 81 82 70 69 67 59 54 43 50
41 34 30 32 33 30 27 27 30 35 40 45 49 53 55 60 65 70 78 90 95 90 86 79 72 65 61 57 58 53 42 47
39 36 35 36 34 32 31 33 37 40 42 46 49 51 53 57 63 68 74 80 88 93 87 75 69 61 51 39 45 47 51 47
Wind_Direction_500mb
144 139 136 132 130 129 128 127 125 125 125 123 121 120 117 110 100 80 53 29 10 357 347 339 331 325 321 320 318 316 316 315
149 144 141 138 136 133 131 129 129 129 126 124 120 115 107 98 79 51 25 2 346 338 333 328 326 325 323 323 322 320 318 318
156 150 149 146 140 137 137 138 133 129 127 125 117 109 98 83 58 18 348 340 333 331 330 328 327 325 323 323 322 321 321 321
162 159 154 150 147 145 142 143 138 136 133 127 121 110 79 34 5 347 340 335 332 329 328 329 328 326 324 322 321 320 319 319
166 165 162 160 157 155 150 148 144 141 135 127 110 77 27 360 350 342 335 330 327 326 327 326 326 324 322 320 319 318 317 317
177 172 171 166 162 159 157 154 150 150 142 129 88 27 360 344 333 327 326 327 327 326 325 326 326 326 324 322 319 318 317 316
185 180 176 172 168 166 164 161 157 153 146 110 35 341 328 325 324 326 328 329 329 330 330 331 331 328 324 322 319 319 319 318
187 182 179 175 174 171 166 164 164 160 151 22 330 328 329 329 331 331 333 333 333 333 331 329 329 326 323 320 317 315 316 316
187 184 181 180 174 172 170 170 168 166 205 321 325 326 328 330 333 333 334 334 333 331 329 327 327 325 323 321 318 315 315 315
190 187 182 179 177 175 172 171 172 190 303 321 324 328 331 333 334 335 332 331 330 328 325 323 322 322 322 322 321 319 318 316
189 184 182 177 178 177 177 178 190 250 309 321 328 330 332 334 333 331 329 327 324 322 321 320 319 320 320 321 321 322 320 318
185 182 180 178 178 180 183 193 227 293 316 324 325 327 327 330 329 327 324 322 321 320 321 322 322 319 317 316 318 320 320 319
180 177 175 177 180 186 196 218 273 295 309 316 318 321 323 324 324 323 323 323 323 322 322 321 319 317 316 316 317 318 315 318
176 174 175 179 188 206 213 244 272 291 295 299 312 318 319 321 322 323 325 324 323 322 321 322 320 320 318 317 316 311 310 316
175 176 179 187 198 214 229 247 261 266 281 300 310 316 320 321 322 324 326 324 321 320 321 320 318 317 319 317 314 314 310 313
177 182 185 193 204 219 236 248 254 269 291 305 314 318 319 322 323 324 323 321 321 321 318 317 317 319 316 310 307 305 301 304
180 185 190 200 215 229 240 244 257 283 301 310 315 315 319 322 323 322 323 324 322 319 319 318 316 316 311 305 299 297 294 293
184 191 202 214 228 236 239 250 275 293 301 307 310 313 317 320 323 324 326 325 323 324 323 323 321 316 307 303 299 291 280 279
196 205 217 228 232 235 245 263 280 293 301 305 308 312 317 320 321 321 323 325 327 326 326 329 325 318 308 303 302 290 272 270
209 216 222 229 235 243 257 272 282 290 297 301 306 312 316 319 320 323 324 324 324 323 327 331 325 319 310 306 302 288 279 272
Wind_Speed_850mb
39 41 41 43 45 44 43 42 40 37 34 32 28 24 20 17 13 10 9 10 12 16 19 24 29 34 38 42 45 49 49 52
45 46 45 44 45 46 42 40 38 35 32 29 27 23 19 15 13 10 12 13 17 22 27 31 36 41 45 48 52 55 58 59
46 46 44 42 41 41 40 37 35 32 29 25 22 19 14 11 9 9 13 19 25 30 34 38 42 46 52 56 58 64 68 71
47 45 44 42 41 39 37 33 32 29 25 23 18 12 7 7 11 15 21 26 33 38 43 46 50 55 58 64 68 70 73 75
47 47 46 45 43 41 39 34 31 26 21 15 11 7 7 12 18 25 32 37 40 42 45 48 50 55 61 66 70 75 78 80
57 54 51 49 46 42 38 34 28 22 16 10 7 8 13 19 26 32 35 38 41 44 47 51 55 60 69 75 80 85 89 89
61 58 55 52 49 44 38 32 25 18 11 6 4 9 17 25 30 34 38 41 45 49 56 59 62 67 72 79 88 92 95 99
69 62 58 53 49 44 38 31 24 15 7 1 9 19 28 33 36 40 44 48 52 56 63 68 70 75 79 84 91 96 98 99
73 67 61 57 50 44 37 30 21 11 2 9 19 28 32 35 38 43 48 53 59 64 68 75 75 78 81 86 92 97 98 97
77 71 64 56 50 43 35 25 15 6 7 17 26 29 31 35 40 45 53 59 65 70 73 78 79 77 79 83 88 94 98 95
79 73 65 58 50 41 32 22 13 7 14 23 28 30 32 37 44 51 59 67 73 78 80 81 84 81 82 85 89 92 93 91
80 74 66 58 48 38 27 17 9 12 18 23 25 27 34 41 50 59 66 73 78 81 83 85 84 85 84 87 88 83 86 84
81 74 64 52 42 32 22 13 12 16 18 19 22 30 39 48 56 63 70 76 82 88 93 93 92 89 87 88 85 72 68 76
78 70 59 48 35 26 20 15 15 17 16 18 25 34 44 54 60 65 71 79 84 87 92 96 95 93 91 88 83 61 61 67
73 64 52 39 33 26 20 17 16 16 17 23 31 39 48 53 60 67 72 76 79 84 89 94 99 98 94 83 74 68 65 67
61 51 44 37 31 24 20 18 17 17 23 30 39 46 51 55 60 65 69 74 80 83 86 90 100 96 84 73 74 66 60 61
58 49 40 31 26 23 21 20 20 22 29 37 43 49 54 59 62 63 71 76 78 78 78 86 83 88 81 73 65 61 55 53
47 39 33 28 26 26 25 23 24 29 35 40 45 51 55 60 67 78 78 77 82 83 84 81 82 70 69 67 59 54 43 50
41 34 30 32 33 30 27 27 30 35 40 45 49 53 55 60 65 70 78 90 95 90 86 79 72 65 61 57 58 53 42 47
39 36 35 36 34 32 31 33 37 40 42 46 49 51 53 57 63 68 74 80 88 93 87 75 69 61 51 39 45 47 51 47
Wind_Direction_850mb
144 139 136 132 130 129 128 127 125 125 125 123 121 120 117 110 100 80 53 29 10 357 347 339 331 325 321 320 318 316 316 315
149 144 141 138 136 133 131 129 129 129 126 124 120 115 107 98 79 51 25 2 346 338 333 328 326 325 323 323 322 320 318 318
156 150 149 146 140 137 137 138 133 129 127 125 117 109 98 83 58 18 348 340 333 331 330 328 327 325 323 323 322 321 321 321
162 159 154 150 147 145 142 143 138 136 133 127 121 110 79 34 5 347 340 335 332 329 328 329 328 326 324 322 321 320 319 319
166 165 162 160 157 155 150 148 144 141 135 127 110 77 27 360 350 342 335 330 327 326 327 326 326 324 322 320 319 318 317 317
177 172 171 166 162 159 157 154 150 150 142 129 88 27 360 344 333 327 326 327 327 326 325 326 326 326 324 322 319 318 317 316
185 180 176 172 168 166 164 161 157 153 146 110 35 341 328 325 324 326 328 329 329 330 330 331 331 328 324 322 319 319 319 318
187 182 179 175 174 171 166 164 164 160 151 22 330 328 329 329 331 331 333 333 333 333 331 329 329 326 323 320 317 315 316 316
187 184 181 180 174 172 170 170 168 166 205 321 325 326 328 330 333 333 334 334 333 331 329 327 327 325 323 321 318 315 315 315
190 187 182 179 177 175 172 171 172 190 303 321 324 328 331 333 334 335 332 331 330 328 325 323 322 322 322 322 321 319 318 316
189 184 182 177 178 177 177 178 190 250 309 321 328 330 332 334 333 331 329 327 324 322 321 320 319 320 320 321 321 322 320 318
185 182 180 178 178 180 183 193 227 293 316 324 325 327 327 330 329 327 324 322 321 320 321 322 322 319 317 316 318 320 320 319
180 177 175 177 180 186 196 218 273 295 309 316 318 321 323 324 324 323 323 323 323 322 322 321 319 317 316 316 317 318 315 318
176 174 175 179 188 206 213 244 272 291 295 299 312 318 319 321 322 323 325 324 323 322 321 322 320 320 318 317 316 311 310 316
175 176 179 187 198 214 229 247 261 266 281 300 310 316 320 321 322 324 326 324 321 320 321 320 318 317 319 317 314 314 310 313
177 182 185 193 204 219 236 248 254 269 291 305 314 318 319 322 323 324 323 321 321 321 318 317 317 319 316 310 307 305 301 304
180 185 190 200 215 229 240 244 257 283 301 310 315 315 319 322 323 322 323 324 322 319 319 318 316 316 311 305 299 297 294 293
184 191 202 214 228 236 239 250 275 293 301 307 310 313 317 320 323 324 326 325 323 324 323 323 321 316 307 303 299 291 280 279
196 205 217 228 232 235 245 263 280 293 301 305 308 312 317 320 321 321 323 325 327 326 326 329 325 318 308 303 302 290 272 270
209 216 222 229 235 243 257 272 282 290 297 301 306 312 316 319 320 323 324 324 324 323 327 331 325 319 310 306 302 288 279 272